RH
97 88 64 82 96 96 98 75 29 19 11 8 6 6 6 4 5 5 7 13 32 36 35 44 54 56 34 39 29 28 19 15 16 11 24 18 16 14 15 12 9 11 11 12 15 17 16
85 92 95 89 81 83 100 100 98 77 40 22 10 7 7 5 4 4 4 4 14 31 39 30 46 58 61 42 23 22 29 12 15 13 21 18 16 16 16 14 12 11 13 12 17 16 20
95 93 79 76 84 95 84 96 100 99 98 63 33 16 8 6 4 4 4 3 6 25 36 33 35 62 72 40 22 20 30 27 18 20 18 17 16 18 15 16 13 12 13 12 16 18 19
86 93 93 92 86 81 85 93 83 96 100 100 87 60 26 8 5 5 4 3 4 14 22 32 39 53 64 20 26 25 25 26 19 17 19 18 18 19 18 17 15 14 12 16 15 21 36
94 92 81 83 88 89 85 78 84 85 86 99 100 95 69 18 8 7 5 3 3 10 19 29 36 64 44 26 30 20 22 24 19 19 20 20 19 19 17 18 18 15 17 17 17 19 23
81 87 87 89 74 79 87 86 85 82 85 88 98 99 98 82 21 9 6 4 10 33 65 66 67 51 40 25 19 19 20 26 18 19 20 20 18 19 18 17 23 17 15 14 24 24 21
88 89 92 88 85 83 61 80 87 83 85 68 88 97 98 100 66 15 8 5 48 83 88 48 32 29 18 24 21 15 16 27 21 19 21 18 23 25 20 16 13 11 13 19 20 19 26
83 84 88 87 87 81 74 62 49 69 84 84 67 89 93 96 98 32 22 73 33 62 49 29 29 35 31 27 25 21 14 24 22 24 19 21 27 19 16 15 14 13 14 14 12 16 15
91 94 89 90 89 90 88 86 84 74 58 76 77 77 90 93 94 40 26 45 51 59 50 26 18 20 22 24 28 22 19 20 21 22 21 24 20 16 16 17 16 15 15 16 23 17 15
92 88 88 89 88 89 88 90 90 89 83 78 51 69 77 90 61 82 59 56 55 66 54 15 12 20 16 21 19 24 18 20 18 21 20 19 15 17 19 16 13 17 13 14 17 18 21
89 87 88 89 90 89 86 84 80 79 80 86 69 68 71 96 85 78 78 61 67 85 37 10 12 24 23 22 17 19 20 20 21 19 19 22 18 17 22 17 14 16 17 18 18 19 20
84 86 87 87 88 88 89 89 84 77 76 84 85 69 73 76 84 52 87 71 75 63 41 14 25 26 25 23 20 17 20 17 18 17 18 17 14 15 17 15 14 14 17 20 20 22 34
81 83 86 89 89 88 87 89 90 88 75 76 85 79 74 90 95 71 84 91 70 47 10 10 21 26 26 29 25 24 21 21 23 27 28 18 16 14 14 17 15 16 22 36 38 39 41
84 85 86 87 86 86 89 88 90 90 88 77 76 88 76 93 78 87 90 100 54 19 21 15 13 20 29 27 28 26 21 22 20 18 23 25 28 17 16 18 21 21 22 40 65 69 52
87 85 88 88 85 87 84 89 93 92 90 81 88 96 96 96 82 95 100 95 45 25 12 15 15 23 26 25 23 26 22 22 19 19 25 25 24 14 15 15 17 21 27 21 50 47 56
91 92 90 90 91 92 91 89 91 92 91 84 96 99 97 85 81 98 99 75 38 20 17 14 16 16 25 26 25 25 26 19 20 18 17 22 29 16 14 14 16 18 17 31 28 52 56
92 92 94 92 91 90 91 90 91 92 89 89 100 100 92 85 88 99 96 76 43 27 22 20 18 16 17 20 24 23 23 20 19 18 17 19 24 23 16 19 20 21 24 30 27 29 49
92 93 95 91 89 87 88 92 97 95 91 99 100 99 86 84 97 95 79 61 46 29 23 25 21 23 19 21 22 35 22 20 15 16 22 20 27 33 22 16 17 18 22 25 39 39 42
93 91 92 90 88 90 87 92 97 99 95 100 98 98 90 80 92 95 68 48 44 38 27 23 26 25 19 23 31 28 29 17 17 18 22 22 27 39 28 27 20 22 20 20 24 28 39
91 90 91 93 90 89 90 92 98 100 100 100 99 99 99 98 64 65 63 54 46 40 31 21 24 20 22 28 36 30 32 19 20 20 20 29 26 29 43 35 24 26 22 25 30 49 45
91 100 99 85 94 96 99 100 98 100 100 100 100 97 88 95 91 59 53 41 42 41 34 28 24 25 24 48 38 42 32 36 23 22 26 30 37 29 24 20 20 22 22 20 22 21 32
98 92 85 78 100 99 94 96 98 94 100 100 100 74 70 52 74 65 60 54 42 33 30 33 33 27 24 34 31 35 35 34 31 26 29 26 36 33 38 23 21 26 26 18 18 18 17
79 78 75 80 83 86 91 89 94 86 100 99 100 80 56 58 71 72 66 54 44 35 28 22 26 31 31 28 31 60 39 50 35 34 35 36 42 40 48 29 26 36 27 20 18 15 16
80 79 79 79 78 83 81 93 100 92 97 100 99 77 74 66 73 66 51 45 42 36 37 24 21 28 23 24 47 76 54 48 45 35 35 41 43 48 67 61 57 27 20 17 19 17 15
95 99 99 90 85 85 80 80 79 89 97 100 100 84 72 87 51 57 50 43 39 36 36 30 21 20 20 38 70 95 89 81 45 35 36 37 47 68 67 56 39 25 22 22 24 23 15
98 99 99 100 97 96 92 85 80 78 90 100 98 96 72 72 61 43 47 42 49 45 40 33 26 21 22 39 72 87 97 58 47 38 33 38 48 64 73 64 63 37 23 18 18 34 17
88 84 85 91 98 98 99 95 86 86 86 100 99 98 84 81 54 43 50 51 40 41 43 33 29 32 38 56 81 88 88 29 38 47 67 68 70 82 72 75 56 24 20 18 37 36 19
85 85 85 85 91 96 94 100 98 88 90 100 98 97 100 96 53 59 70 82 55 40 50 34 38 45 78 84 70 60 62 41 31 25 69 88 83 88 75 76 72 25 23 30 28 19 19
98 94 88 88 99 91 93 99 100 99 97 100 100 100 97 94 91 84 79 79 77 63 40 34 39 39 51 75 55 51 74 68 38 45 28 71 60 75 51 52 41 26 28 22 20 22 22
Wind_Speed
22 20 22 23 20 18 19 20 21 21 21 22 21 20 19 19 19 19 21 23 21 22 23 22 21 21 20 8 16 13 12 12 10 11 11 11 12 14 17 18 11 10 14 12 10 7 8
21 20 20 21 22 24 19 18 19 19 21 22 22 22 20 20 19 19 19 19 20 20 21 22 21 20 14 16 8 10 9 12 11 13 12 13 13 14 13 18 14 14 11 17 11 14 3
20 19 18 20 22 21 23 23 19 19 21 21 22 22 22 20 19 19 20 20 20 19 20 19 19 19 16 29 9 7 10 10 10 14 13 11 12 11 15 14 17 14 15 16 6 13 3
20 22 22 21 19 18 21 22 26 24 20 21 20 21 22 21 20 19 20 19 19 19 20 18 16 15 15 12 11 17 16 13 12 14 14 10 8 13 17 18 21 15 18 16 8 12 6
23 23 23 22 22 22 20 18 23 24 26 20 20 21 21 22 21 20 19 18 17 18 19 17 13 6 15 12 21 19 19 17 14 14 14 12 9 15 18 16 14 16 14 12 12 8 4
24 24 23 24 24 23 23 22 21 20 22 26 19 20 20 21 21 19 19 17 14 20 16 8 9 8 18 16 12 15 20 18 17 15 15 15 13 12 14 13 14 15 13 9 7 5 9
26 26 25 25 24 25 26 23 24 23 20 19 22 19 18 19 22 16 17 15 10 5 9 11 7 12 17 7 5 12 20 18 15 20 16 19 13 15 20 19 19 15 15 11 15 9 7
28 28 28 28 28 27 26 27 27 25 23 19 18 19 17 18 21 16 11 5 7 8 14 21 28 28 28 14 8 14 21 20 20 18 19 16 18 19 20 13 11 12 14 15 6 8 4
30 30 30 31 32 31 28 26 24 24 25 22 16 21 18 17 19 17 13 15 9 13 10 27 31 32 34 28 26 20 26 27 19 18 19 19 19 14 11 10 11 12 15 7 9 9 10
34 33 33 34 32 29 29 28 27 24 22 21 22 17 19 14 14 6 14 9 10 8 7 15 19 12 33 27 25 32 26 28 16 20 21 19 22 12 11 11 13 14 9 11 6 9 10
36 35 35 34 32 31 30 28 27 28 25 21 18 17 18 14 7 6 4 7 5 2 7 7 13 8 12 34 8 28 32 32 25 22 12 19 20 17 12 14 14 12 4 9 9 11 12
39 38 36 34 33 32 30 28 27 26 26 23 18 18 15 19 16 13 5 7 8 5 11 6 10 10 11 26 33 21 35 37 33 22 21 21 22 17 14 15 13 8 8 10 12 11 9
41 40 38 36 34 34 32 29 27 26 25 25 21 19 20 17 18 9 9 5 6 12 8 12 10 10 14 15 22 24 24 26 23 21 20 21 22 19 14 18 13 9 9 8 6 7 8
42 41 40 37 36 35 34 32 28 26 24 25 24 20 23 20 19 13 11 5 14 14 27 5 10 15 15 15 19 22 22 23 25 24 14 17 14 23 12 16 14 13 14 7 6 3 7
44 42 41 39 37 36 35 33 31 27 25 22 23 24 23 19 23 15 8 13 19 23 18 28 13 9 14 15 15 18 22 22 24 25 18 16 22 19 18 13 17 15 14 16 7 7 7
41 40 40 41 39 38 36 34 31 30 26 24 26 26 27 22 26 19 7 21 28 24 25 24 25 18 12 16 16 17 23 17 24 25 20 17 12 19 22 21 19 17 11 10 9 4 4
42 41 41 40 39 39 39 37 36 33 28 25 28 13 15 24 26 18 10 18 30 34 34 25 25 20 20 23 15 19 21 21 22 20 20 20 14 12 13 12 16 12 16 9 15 10 6
44 44 43 43 42 42 42 42 38 35 32 32 28 5 19 35 16 8 17 36 33 33 35 30 25 23 23 20 19 18 21 17 15 20 25 24 4 9 15 16 16 18 17 16 8 8 4
46 47 46 44 43 42 42 43 43 40 40 41 17 11 22 43 12 15 23 35 34 28 32 26 30 27 25 20 18 10 20 18 10 12 18 18 14 10 14 12 17 16 15 13 13 10 12
44 44 43 43 43 42 42 45 44 43 45 48 17 7 14 36 35 25 26 35 33 41 31 37 25 24 24 20 18 9 12 14 7 8 12 1 14 13 10 15 14 15 15 18 13 5 8
41 32 35 38 41 41 38 42 38 45 48 54 23 9 16 14 22 27 25 20 27 26 36 35 28 27 20 20 16 18 16 15 9 11 3 6 15 17 15 18 18 20 21 20 20 15 14
35 36 35 35 34 39 39 44 42 44 48 59 15 11 30 15 32 27 24 29 32 23 26 35 27 27 22 20 18 16 15 11 12 11 11 8 10 12 15 16 20 13 22 19 19 21 19
37 38 38 38 39 38 40 43 45 48 59 35 32 41 30 23 23 21 25 33 32 26 26 36 31 25 20 21 19 31 15 5 9 9 13 10 6 11 12 15 18 19 18 19 15 15 12
41 42 43 43 44 43 43 44 46 50 56 25 36 36 13 13 16 22 32 32 32 27 26 31 37 28 30 18 9 14 13 13 16 7 1 2 11 6 4 1 22 10 13 15 14 15 18
42 43 44 47 47 46 47 49 49 51 55 56 27 37 20 10 18 23 28 26 31 30 23 27 36 43 37 7 6 7 4 11 10 14 7 3 4 2 5 10 12 16 16 11 11 16 19
45 45 43 45 48 51 51 50 52 53 52 54 28 47 35 15 13 34 17 26 17 17 18 27 41 36 35 10 5 9 5 7 10 8 10 10 9 6 2 8 17 9 14 22 14 14 11
31 33 33 40 45 49 50 52 52 53 52 52 46 42 32 17 30 22 11 19 26 20 13 18 32 24 13 12 8 5 4 15 11 13 5 7 8 9 9 7 5 6 14 23 19 8 12
32 32 34 36 42 51 48 51 52 52 50 51 37 46 37 13 16 16 11 10 23 27 14 16 17 15 7 8 8 6 7 11 13 10 10 7 7 6 6 6 13 1 10 18 9 22 15
19 26 28 30 41 50 45 47 48 51 49 49 36 39 42 24 5 7 14 15 18 24 22 23 23 12 11 7 7 6 4 6 11 10 13 7 9 4 7 3 14 21 18 14 14 11 17
Wind_Direction
287 285 277 268 270 277 287 287 282 280 278 279 283 284 286 290 294 296 294 290 285 290 296 298 302 314 323 275 268 273 264 257 256 229 220 229 237 240 260 284 280 252 273 306 304 296 270
287 285 286 284 278 267 274 283 285 284 280 281 281 283 286 287 292 295 298 297 290 287 289 293 302 310 315 270 255 279 271 247 241 215 222 233 247 288 308 287 291 293 290 287 270 295 213
298 297 298 288 279 280 274 267 279 281 285 282 282 280 280 283 288 292 296 301 300 290 289 289 296 310 285 254 244 242 236 238 211 218 223 235 257 282 273 290 265 277 273 275 263 281 290
278 284 291 294 297 290 279 280 270 268 280 283 285 284 280 277 280 285 291 300 305 301 295 292 292 300 262 251 261 246 229 220 220 224 230 262 263 270 279 283 291 270 258 264 221 237 134
280 282 278 277 285 290 292 289 281 281 264 278 281 287 287 278 276 280 285 293 305 301 293 288 291 264 270 265 237 229 213 211 215 219 227 242 260 264 274 253 263 247 255 254 249 343 221
282 280 278 279 273 272 282 285 285 289 281 259 275 279 289 290 279 276 283 291 307 298 293 285 247 263 253 246 250 220 206 208 212 209 223 235 244 249 247 249 255 266 253 266 67 245 263
280 279 278 277 276 276 268 269 279 282 283 292 256 274 278 292 288 276 280 305 282 259 208 229 219 242 288 234 228 217 200 201 216 206 222 225 233 237 242 232 253 282 297 242 185 195 223
279 280 280 280 278 277 273 271 267 270 278 279 267 266 273 282 295 280 267 262 305 317 293 262 261 258 253 260 274 223 194 197 209 215 214 233 226 242 260 290 300 300 276 274 310 177 265
281 279 279 278 276 274 271 269 270 269 267 266 279 252 270 275 289 285 264 241 285 310 272 283 249 243 236 230 239 242 198 204 206 215 226 225 239 239 243 261 251 245 258 296 320 284 282
282 280 277 276 274 270 268 266 264 267 268 269 259 270 252 267 296 307 261 282 279 279 277 263 237 240 222 216 229 230 212 205 224 214 226 240 237 246 245 244 227 250 257 268 254 283 279
282 279 277 275 271 268 266 264 263 257 261 266 262 256 248 245 254 217 284 155 242 263 284 263 219 165 208 200 166 212 219 207 222 219 217 233 240 241 226 238 241 247 186 285 288 286 285
280 279 276 273 269 267 266 264 260 256 253 253 253 249 255 239 231 193 147 165 176 235 244 251 146 187 197 204 219 253 202 216 222 230 232 242 240 235 225 240 252 254 229 257 263 251 261
278 275 273 271 269 267 265 262 258 251 247 244 247 250 241 228 227 264 250 204 202 225 197 238 190 192 206 204 214 236 197 209 207 216 226 225 242 226 217 229 219 218 244 251 240 232 237
275 273 268 268 266 265 262 259 255 250 244 240 238 239 233 233 215 232 262 219 227 223 231 74 220 192 211 217 208 220 215 210 210 216 214 225 221 234 202 237 219 215 226 216 210 308 2
275 271 265 265 263 260 257 255 254 248 240 235 229 232 228 234 204 215 229 208 226 226 205 237 264 248 232 224 227 214 223 206 213 219 215 224 234 219 211 203 235 221 213 250 144 221 240
271 268 264 262 259 257 253 249 250 243 233 223 221 225 224 214 203 208 210 225 238 236 259 265 234 248 239 227 219 214 220 214 217 204 230 247 237 232 203 207 210 239 231 242 240 216 235
269 265 263 260 257 255 249 247 245 238 226 214 213 223 215 196 199 214 214 234 240 241 245 255 265 265 251 263 225 220 223 222 215 207 212 248 259 263 180 197 221 216 232 210 255 224 247
268 265 261 259 256 252 248 243 236 228 215 205 199 214 168 182 192 203 217 220 231 231 235 255 269 282 257 252 251 267 233 228 216 200 202 230 241 236 234 203 220 244 220 228 221 199 243
269 266 261 257 254 247 242 235 231 222 208 197 195 180 185 182 198 213 230 237 241 230 241 236 246 258 271 261 274 256 253 241 154 214 211 215 234 242 227 246 217 227 224 240 240 233 230
268 264 257 254 250 244 240 231 224 220 209 198 181 168 175 201 209 206 212 232 233 229 238 238 253 248 261 248 274 242 285 234 160 232 237 260 220 231 229 213 223 220 215 221 243 254 274
266 260 255 260 250 236 230 218 219 213 213 198 187 199 183 191 208 217 213 233 235 232 225 241 242 242 245 249 252 263 237 292 177 197 253 212 235 228 243 246 227 218 219 232 239 240 227
262 260 257 250 238 225 227 231 226 223 214 200 178 202 188 202 203 209 218 224 237 223 217 223 233 234 241 248 253 238 253 250 251 209 220 251 232 223 249 244 258 220 257 233 230 239 241
264 259 256 250 246 243 234 226 220 214 211 204 198 202 187 210 192 203 214 226 231 234 229 226 222 235 230 240 247 308 199 293 274 258 199 226 210 222 237 243 262 258 219 243 236 254 249
267 261 256 251 245 239 233 226 218 213 213 210 198 196 211 204 197 205 214 220 230 232 235 227 222 227 234 241 181 287 304 192 270 214 113 282 223 214 198 244 242 268 264 260 251 269 278
266 262 258 248 242 236 230 225 221 218 217 220 203 196 193 206 199 203 217 220 225 237 237 240 224 230 227 191 136 287 257 244 219 219 178 312 321 242 196 235 267 246 241 256 260 258 249
268 263 258 246 239 232 228 222 219 216 215 215 212 199 195 208 214 205 210 220 220 225 229 228 240 225 225 222 176 192 222 234 186 181 188 212 285 269 249 219 241 237 239 268 237 260 260
263 256 248 241 236 228 223 217 215 213 210 208 214 205 202 208 224 221 221 218 221 216 230 226 227 225 230 200 193 180 237 239 225 193 161 186 216 261 242 252 264 193 222 240 246 253 247
269 257 249 246 233 219 214 212 211 208 204 201 200 208 198 199 195 199 201 224 241 222 216 215 215 226 178 226 197 190 195 229 242 212 161 155 182 212 228 240 247 239 251 220 228 228 245
276 245 246 248 211 204 204 203 205 199 197 197 197 194 199 209 163 165 201 227 235 244 247 209 217 209 187 212 211 208 247 193 216 238 186 179 173 210 236 207 316 228 241 269 272 278 271